Flag for U.S.A. Weather past 2 weeks in Hudson, Wisconsin, U.S.A.

Now
70 °F

More clouds than sun.


Feels Like: 67 °F
Forecast: 69 / 83 °F
Wind: 13 mph from Southeast

Location: St. Paul Downtown Holman Field

Current Time: Sep 2, 2015 at 10:45:42 AM

Latest Report: Sep 2, 2015 at 9:53 AM


Visibility: 10 mi

Pressure: 29.91 "Hg

Humidity: 90%

Dew point: 67 °F

Location of HudsonLocation

Historic Weather in Hudson — Graph

°F

Hudson temperature yesterday

Maximum temperature yesterday: 84 °F (at 5:53 PM)
Minimum temperature yesterday: 68 °F (at 5:53 AM)
Average temperature yesterday: 75 °F

Past Weeks' High & Low Weather Summary

 TemperatureHumidityPressure
High84 °F (Aug 31, 3:53 PM)100% (Aug 19, 12:53 AM)30.20 "Hg (Aug 19, 12:53 AM)
Low51 °F (Aug 26, 6:53 AM)38% (Aug 20, 3:53 PM)29.46 "Hg (Aug 19, 4:53 AM)
Average66 °F77%29.91 "Hg
* Reported Aug 18 8:53 AM — Sep 2 8:53 AM, Hudson, Weather by CustomWeather, © 2015

Note: Actual official high and low records may vary slightly from our data, if they occured in-between our weather recording intervals... More about our weather records

Advertising

Hudson weather history for previous 24 hours

 ConditionsComfort  
Time TempWeatherWind HumidityBarometerVisibility
8:53 AM
Wed, Sep 2
71 °FOvercast.8 mph90%29.91 "Hg10 mi
7:53 AM70 °FOvercast.6 mph93%29.92 "Hg8 mi
6:53 AM70 °FPassing clouds.6 mph93%29.90 "Hg9 mi
5:53 AM69 °FPassing clouds.No wind96%29.90 "Hg7 mi
4:53 AM70 °FLight rain. Passing clouds.5 mph97%29.90 "Hg7 mi
4:02 AM73 °FThundershowers. Fog.10 mph94%29.93 "Hg4 mi
3:53 AM74 °FThundershowers. Fog.16 mph94%29.91 "Hg4 mi
2:53 AM74 °FLight rain. Fog.No wind97%29.88 "Hg5 mi
2:00 AM74 °FLight rain. Fog.3 mph97%29.92 "Hg2 mi
12:53 AM75 °FFog.5 mph94%29.90 "Hg4 mi
11:53 PM
Tue, Sep 1
74 °FFog.3 mph97%29.90 "Hg5 mi
10:53 PM74 °FFog.5 mph97%29.90 "Hg6 mi
9:53 PM75 °FClear.5 mph94%29.90 "Hg7 mi
8:53 PM79 °FThundershowers. Passing clouds.3 mph84%29.89 "Hg9 mi
7:53 PM79 °FPassing clouds.5 mph84%29.87 "Hg9 mi
6:53 PM83 °FSunny.3 mph77%29.86 "Hg9 mi
5:53 PM84 °FSunny.3 mph74%29.86 "Hg10 mi
3:53 PM83 °FSunny.6 mph74%29.85 "Hg9 mi
2:53 PM83 °FSunny.3 mph70%29.88 "Hg10 mi
1:53 PM82 °FPassing clouds.7 mph72%29.87 "Hg9 mi
12:53 PM83 °FSunny.8 mph68%29.88 "Hg10 mi
11:53 AM80 °FSunny.7 mph74%29.89 "Hg8 mi
10:53 AM78 °FSunny.8 mph79%29.90 "Hg7 mi
Weather by CustomWeather, © 2015

See weather overviewHow to use our weather pages